This demonstration page uses our WeatherBlox Daily Observations layout. Learn more.

Left ArrowRight Arrow

39.01783, -85.05884

Hourly Observations for March 2, 2020

Temp ( °F °C ) Dew Point ( °F °C ) Humidity (%) Winds ( mph kmh ) Pressure ( in mb ) Visibility ( mi km ) Precip ( " mm )
12:52 am 00:52 Cloudy 57 13.9 35 1.7 44 44 SW 21 33 29.91 1013 10 16 0.00 0.00
1:52 am 01:52 Cloudy 56 13.3 34 1.1 44 44 SSW 15 24 29.89 1012 10 16 0.00 0.00
2:52 am 02:52 Cloudy 55 12.8 35 1.7 47 47 SSW 16 26 29.86 1011 10 16 0.00 0.00
3:52 am 03:52 Cloudy 55 12.8 35 1.7 47 47 SSW 15 24 29.84 1011 10 16 0.00 0.00
4:52 am 04:52 Cloudy 54 12.2 36 2.2 51 51 SSW 13 20 29.83 1010 10 16 0.00 0.00
5:52 am 05:52 Cloudy 53 11.7 40 4.4 61 61 SSW 13 20 29.82 1010 10 16 0.00 0.00
6:52 am 06:52 Cloudy with Light Rain 51 10.6 42 5.6 71 71 SSW 15 24 29.81 1010 10 16 0.00 0.00
7:52 am 07:52 Cloudy with Light Rain 50 10 45 7.2 83 83 S 14 22 29.80 1009 8 13 0.01 0.25
8:02 am 08:02 Cloudy with Light Rain 49 9.4 45 7.2 86 86 S 15 24 29.82 1010 10 16 0.00 0.00
8:52 am 08:52 Cloudy 50 10 45 7.2 83 83 SSW 13 20 29.80 1009 10 16 0.00 0.00
9:52 am 09:52 Cloudy 50 10 46 7.8 86 86 SSW 13 20 29.79 1009 9 14 0.00 0.00
10:16 am 10:16 Cloudy with Light Rain 50 10 46 7.8 86 86 SSW 13 20 29.80 1009 3 5 0.00 0.00
10:30 am 10:30 Cloudy with Drizzle 50 10 46 7.8 86 86 SSW 10 17 29.80 1009 6 10 0.00 0.00
10:52 am 10:52 Cloudy 50 10 46 7.8 86 86 SSW 13 20 29.78 1008 7 11 0.00 0.00
11:52 am 11:52 Cloudy with Mist and Fog 50 10 47 8.3 89 89 SSW 12 19 29.78 1008 6 10 0.00 0.00
12:43 pm 12:43 Cloudy with Rain 50 10 47 8.3 89 89 SW 9 15 29.78 1008 3 5 0.07 1.78
12:52 pm 12:52 Cloudy with Rain 50 10 48 8.9 93 93 SSW 9 15 29.76 1008 3 5 0.10 2.54
1:28 pm 13:28 Cloudy with Light Rain 51 10.6 48 8.9 89 89 SW 9 15 29.76 1008 8 13 0.05 1.27
1:52 pm 13:52 Cloudy 51 10.6 49 9.4 92 92 SSW 10 17 29.73 1007 10 16 0.05 1.27
2:35 pm 14:35 Cloudy with Drizzle 51 10.6 48 8.9 89 89 SW 9 15 29.75 1007 4 6 0.00 0.00
2:52 pm 14:52 Cloudy 51 10.6 48 8.9 89 89 WSW 9 15 29.72 1007 7 11 0.00 0.00
3:52 pm 15:52 Cloudy with Mist and Fog 52 11.1 49 9.4 89 89 WSW 13 20 29.72 1006 5 8 0.00 0.00
4:52 pm 16:52 Cloudy with Mist and Fog 52 11.1 49 9.4 89 89 SW 7 11 29.73 1007 5 8 0.00 0.00
5:52 pm 17:52 Cloudy 53 11.7 49 9.4 86 86 SW 8 13 29.75 1008 7 11 0.00 0.00
6:37 pm 18:37 Cloudy 53 11.7 49 9.4 86 86 SSW 6 9 29.76 1008 7 11 0.00 0.00
6:52 pm 18:52 Cloudy 52 11.1 49 9.4 89 89 SSW 3 6 29.75 1008 8 13 0.00 0.00
7:52 pm 19:52 Cloudy 51 10.6 49 9.4 92 92 S 5 7 29.76 1008 7 11 0.00 0.00
8:21 pm 20:21 Cloudy with Mist and Fog 51 10.6 49 9.4 92 92 S 5 7 29.78 1008 6 10 0.00 0.00
8:52 pm 20:52 Cloudy with Drizzle 51 10.6 49 9.4 92 92 S 5 7 29.76 1008 4 6 0.00 0.00
9:33 pm 21:33 Cloudy with Mist and Fog 50 10 49 9.4 96 96 SSE 7 11 29.77 1008 3 5 0.00 0.00
9:52 pm 21:52 Cloudy with Mist and Fog 51 10.6 49 9.4 92 92 SSE 6 9 29.74 1007 4 6 0.01 0.25
10:52 pm 22:52 Cloudy with Mist and Fog 50 10 49 9.4 96 96 SSE 9 15 29.72 1007 6 10 0.00 0.00
11:10 pm 23:10 Cloudy 51 10.6 49 9.4 92 92 S 8 13 29.73 1007 7 11 0.00 0.00
11:52 pm 23:52 Cloudy 51 10.6 48 8.9 89 89 S 12 19 29.68 1005 9 14 0.00 0.00

Powered by AerisWeather